COSMOS 2251 DEB, 34634

Orbit data source: Space-Track

COSMOS 2251 DEB, 34634 is space debris in LEO originally from a launch on Wed, 16 Jun 1993 UTC launched from the Plesetsk Missile And Space Complex (PKMTR). The debris from Iridium 33, an American commercial communications satellite, has been tracked extensively since its accidental collision with the defunct Russian satellite Cosmos 2251 in 2009. This event, occurring at high speed in low Earth orbit (LEO), generated thousands of pieces of space debris, significantly increasing the risk of further collisions. The Iridium 33 debris cloud has impacted space traffic management and orbital debris mitigation strategies, making it a subject of ongoing study in space situational awareness.

Loading next visibility...
Identifier
34634, 1993-036XF
Orbit
LEO
Country
Flag of CISCIS
Related business
Manufacturer
Unknown
Mission
Spacecraft
Bus & Motor
Unknown
Mass
Unknown
Launch date (UTC)
1993-06-16 (33 years ago)
Launch vehicle
Unknown
Launch site
Plesetsk Missile And Space Complex (PKMTR)
Object type
Payload
Rocket body
Debris
Shape & HBR
Unknown shape, 0.1 m
Radar Cross Section
Small (<0.1 m²)

Expand to show TLE details & history
Last TLE update: 11 hours ago

TLE from 11 hours ago
0 COSMOS 2251 DEB
1 34634U 93036XF  26034.89771314  .00001775  00000-0  40569-3 0  9993
2 34634  74.0525 294.3183 0044510  25.5948 101.9110 14.55880047895559
Epoch: 2026-02-03T21:32Z
TLE epoch observation values (Epoch: 2026-02-03T21:32:42.415Z)
Latitude
49.3642°
Longitude
-2.27141°
Altitude
720.623 km
Speed
7.497 km/s
True Right ascension
06h 19m 54s
True Declination
49° 11' 36"
Sunlit
Object was in full shadow at epoch
Visualization orbit readout
Latitude
Unknown
Longitude
Unknown
Altitude
Unknown
Speed
Unknown
Apparent Right ascension
Unknown
Apparent Declination
Unknown
Sunlit
N/A
Visualization observer readout
Local Sidereal Time
10:38:26
Azimuth
Unknown
Elevation
Unknown
Doppler factor
Unknown
Orbital elements
Apogee altitude
735.632 km
Perigee altitude
672.586 km
Semi-major axis
7,082.246 km
Eccentricity
0.00445
Inclination
74.0525°
RAAN
294.3183°
Arg. of periapsis
25.5948°
True anomaly
102.40949°
Mean anomaly
101.911°
Eccentric anomaly
102.1603°
Mean motion
3.64155 °/min
Orbital period
98.86 mins
BSTAR
0.00040569
Loading maneuver chart data...
Computing Atmospheric mass density...

Documentation

Showing up to 5 results
|